Location: Anglesey
(53.1800°N, 4.2200°W)
Time: 20:56:48
(UTC+00:00)

Envisat - Pass Details

Date: 16 October 2017
Orbit: 764 x 766 km, 98.2° (Epoch: 10 December)

Event Time Altitude Azimuth Distance (km) Brightness Sun altitude
Exits shadow 19:05:22 - 98° (E) 2,416 4.9 -7.8°
Reaches altitude 10° 19:05:46 10° 95° (E) 2,310 4.8 -7.8°
Maximum altitude 19:09:10 18° 53° (NE) 1,801 4.4 -8.3°
Drops below altitude 10° 19:12:35 10° 11° (N) 2,319 5.4 -8.8°
Sets 19:15:31 0° 353° (N) 3,250 6.3 -9.3°
